When you browse on this site, cookies collect data to enhance your experience and personalize the content and advertising you see.
Visit our Privacy Policy to learn more. By continuing to use the site, you agree to this use of cookies and data.
  • In Latvia
  • List of Countries
  • For 7 days
  • Water Temperature
  • Weather Map
  • Weather Widgets
  • user-avatar
    Login

    Hourly Weather Lomovka

    Today, 25 August, Sunday

    Time Temperature Precipitation Wind Pressure Humidity
    00:00 +16°C° 0 mm 2 mps 749 mmHg 75%
    01:00 +16°C° 0 mm 2 mps 749 mmHg 79%
    02:00 +15°C° 0 mm 2 mps 749 mmHg 83%
    03:00 +15°C° 0 mm 2 mps 749 mmHg 87%
    04:00 +15°C° 0 mm 2 mps 749 mmHg 89%
    05:00 +13°C° 0 mm 3 mps 749 mmHg 92%
    06:00 +13°C° 0 mm 3 mps 749 mmHg 94%
    07:00 +14°C° 0 mm 3 mps 750 mmHg 88%
    08:00 +17°C° 0 mm 3 mps 750 mmHg 82%
    09:00 +18°C° 0 mm 4 mps 750 mmHg 76%
    10:00 +19°C° 0 mm 4 mps 750 mmHg 71%
    11:00 +20°C° 0 mm 4 mps 750 mmHg 65%
    12:00 +21°C° 0 mm 4 mps 751 mmHg 59%
    13:00 +21°C° 0 mm 4 mps 751 mmHg 58%
    14:00 +21°C° 0 mm 4 mps 751 mmHg 58%
    15:00 +22°C° 0 mm 4 mps 751 mmHg 57%
    16:00 +21°C° 0 mm 4 mps 751 mmHg 61%
    17:00 +20°C° 0 mm 3 mps 751 mmHg 64%
    18:00 +20°C° 0 mm 3 mps 751 mmHg 68%
    19:00 +18°C° 0 mm 3 mps 751 mmHg 72%
    20:00 +17°C° 0 mm 2 mps 752 mmHg 76%
    21:00 +16°C° 0 mm 2 mps 752 mmHg 80%
    22:00 +15°C° 0 mm 2 mps 752 mmHg 83%
    23:00 +14°C° 0 mm 2 mps 752 mmHg 86%

    Tomorrow, 26 August, Monday

    Time Temperature Precipitation Wind Pressure Humidity
    00:00 +14°C° 0 mm 2 mps 753 mmHg 88%
    01:00 +13°C° 0 mm 2 mps 753 mmHg 90%
    02:00 +13°C° 0 mm 2 mps 753 mmHg 91%
    03:00 +12°C° 0 mm 1 mps 753 mmHg 92%
    04:00 +12°C° 0 mm 1 mps 753 mmHg 92%
    05:00 +12°C° 0 mm 1 mps 753 mmHg 92%
    06:00 +12°C° 0 mm 1 mps 753 mmHg 92%
    07:00 +13°C° 0 mm 1 mps 753 mmHg 86%
    08:00 +15°C° 0 mm 1 mps 753 mmHg 79%
    09:00 +16°C° 0 mm 1 mps 754 mmHg 72%
    10:00 +19°C° 0 mm 1 mps 753 mmHg 67%
    11:00 +20°C° 0 mm 1 mps 753 mmHg 61%
    12:00 +19°C° 0 mm 0 mps 753 mmHg 56%
    13:00 +22°C° 0 mm 1 mps 753 mmHg 53%
    14:00 +22°C° 0 mm 1 mps 752 mmHg 51%
    15:00 +23°C° 0 mm 1 mps 752 mmHg 48%
    16:00 +23°C° 0 mm 1 mps 752 mmHg 52%
    17:00 +22°C° 0 mm 1 mps 751 mmHg 56%
    18:00 +22°C° 0 mm 1 mps 751 mmHg 59%
    19:00 +21°C° 0 mm 1 mps 751 mmHg 63%
    20:00 +19°C° 0 mm 1 mps 750 mmHg 67%
    21:00 +16°C° 0 mm 1 mps 750 mmHg 71%
    22:00 +16°C° 0 mm 2 mps 750 mmHg 73%
    23:00 +16°C° 0 mm 2 mps 750 mmHg 75%

    Day after tomorrow, 27 August, Tuesday

    Time Temperature Precipitation Wind Pressure Humidity
    00:00 +15°C° 0 mm 2 mps 750 mmHg 77%
    01:00 +14°C° 0 mm 3 mps 749 mmHg 78%
    02:00 +14°C° 0 mm 3 mps 749 mmHg 79%
    03:00 +13°C° 0 mm 3 mps 748 mmHg 81%
    04:00 +13°C° 0 mm 3 mps 748 mmHg 82%
    05:00 +13°C° 0 mm 4 mps 748 mmHg 83%
    06:00 +13°C° 0 mm 4 mps 747 mmHg 84%
    07:00 +14°C° 0 mm 4 mps 747 mmHg 81%
    08:00 +16°C° 0 mm 5 mps 747 mmHg 79%
    09:00 +17°C° 0 mm 5 mps 747 mmHg 76%
    10:00 +19°C° 0.4 mm 6 mps 746 mmHg 74%
    11:00 +20°C° 0.4 mm 6 mps 746 mmHg 71%
    12:00 +22°C° 0.4 mm 6 mps 746 mmHg 69%
    13:00 +22°C° 0.2 mm 6 mps 745 mmHg 67%
    14:00 +22°C° 0.2 mm 6 mps 745 mmHg 65%
    15:00 +22°C° 0.2 mm 6 mps 745 mmHg 63%
    16:00 +21°C° 0 mm 6 mps 745 mmHg 63%
    17:00 +21°C° 0 mm 5 mps 745 mmHg 63%
    18:00 +20°C° 0 mm 5 mps 745 mmHg 62%
    19:00 +17°C° 0 mm 5 mps 745 mmHg 65%
    20:00 +17°C° 0 mm 4 mps 745 mmHg 67%
    21:00 +15°C° 0 mm 4 mps 745 mmHg 70%
    22:00 +14°C° 0 mm 4 mps 746 mmHg 73%
    23:00 +14°C° 0 mm 4 mps 746 mmHg 76%

    28 August, Wednesday

    Time Temperature Precipitation Wind Pressure Humidity
    00:00 +13°C° 0 mm 4 mps 746 mmHg 78%
    01:00 +12°C° 0 mm 4 mps 746 mmHg 81%
    02:00 +11°C° 0 mm 4 mps 746 mmHg 84%
    03:00 +11°C° 0 mm 4 mps 747 mmHg 87%
    04:00 +10°C° 0 mm 4 mps 747 mmHg 87%
    05:00 +8°C° 0 mm 4 mps 747 mmHg 87%
    06:00 +8°C° 0 mm 4 mps 747 mmHg 87%
    07:00 +8°C° 0 mm 5 mps 748 mmHg 80%
    08:00 +9°C° 0 mm 5 mps 748 mmHg 73%
    09:00 +10°C° 0 mm 6 mps 748 mmHg 66%
    10:00 +11°C° 0 mm 6 mps 748 mmHg 62%
    11:00 +13°C° 0 mm 6 mps 748 mmHg 58%
    12:00 +14°C° 0 mm 6 mps 748 mmHg 54%
    13:00 +14°C° 0 mm 6 mps 748 mmHg 53%
    14:00 +14°C° 0 mm 6 mps 748 mmHg 52%
    15:00 +14°C° 0 mm 6 mps 748 mmHg 51%
    16:00 +14°C° 0 mm 6 mps 749 mmHg 55%
    17:00 +13°C° 0 mm 5 mps 749 mmHg 59%
    18:00 +12°C° 0 mm 5 mps 749 mmHg 63%
    19:00 +11°C° 0 mm 4 mps 749 mmHg 67%
    20:00 +10°C° 0 mm 3 mps 749 mmHg 72%
    21:00 +9°C° 0 mm 3 mps 750 mmHg 76%
    22:00 +8°C° 0 mm 3 mps 750 mmHg 78%
    23:00 +8°C° 0 mm 3 mps 750 mmHg 80%

    29 August, Thursday

    Time Temperature Precipitation Wind Pressure Humidity
    00:00 +7°C° 0 mm 3 mps 750 mmHg 82%
    01:00 +7°C° 0 mm 3 mps 750 mmHg 82%
    02:00 +7°C° 0 mm 3 mps 750 mmHg 81%
    03:00 +7°C° 0 mm 3 mps 750 mmHg 81%
    04:00 +5°C° 0 mm 3 mps 751 mmHg 84%
    05:00 +5°C° 0 mm 3 mps 751 mmHg 87%
    06:00 +4°C° 0 mm 3 mps 751 mmHg 91%
    07:00 +6°C° 0 mm 4 mps 751 mmHg 81%
    08:00 +7°C° 0 mm 5 mps 751 mmHg 72%
    09:00 +9°C° 0 mm 5 mps 751 mmHg 63%
    10:00 +10°C° 0 mm 5 mps 751 mmHg 60%
    11:00 +12°C° 0 mm 5 mps 751 mmHg 58%
    12:00 +13°C° 0 mm 5 mps 751 mmHg 55%
    13:00 +13°C° 0 mm 5 mps 751 mmHg 54%
    14:00 +14°C° 0 mm 5 mps 751 mmHg 53%
    15:00 +14°C° 0 mm 5 mps 751 mmHg 53%
    16:00 +14°C° 0 mm 4 mps 751 mmHg 56%
    17:00 +14°C° 0 mm 4 mps 751 mmHg 58%
    18:00 +13°C° 0 mm 3 mps 751 mmHg 61%
    19:00 +12°C° 0 mm 3 mps 751 mmHg 65%
    20:00 +10°C° 0 mm 3 mps 751 mmHg 69%
    21:00 +9°C° 0 mm 3 mps 751 mmHg 73%
    22:00 +8°C° 0 mm 2 mps 751 mmHg 75%
    23:00 +7°C° 0 mm 2 mps 751 mmHg 77%

    30 August, Friday

    Time Temperature Precipitation Wind Pressure Humidity
    00:00 +7°C° 0 mm 2 mps 752 mmHg 80%
    01:00 +6°C° 0 mm 2 mps 752 mmHg 81%
    02:00 +6°C° 0 mm 2 mps 752 mmHg 83%
    03:00 +6°C° 0 mm 2 mps 752 mmHg 85%
    04:00 +5°C° 0 mm 2 mps 752 mmHg 86%
    05:00 +5°C° 0 mm 2 mps 752 mmHg 87%
    06:00 +5°C° 0 mm 2 mps 752 mmHg 88%
    07:00 +7°C° 0 mm 2 mps 752 mmHg 80%
    08:00 +9°C° 0 mm 2 mps 752 mmHg 73%
    09:00 +10°C° 0 mm 3 mps 752 mmHg 65%
    10:00 +12°C° 0 mm 3 mps 752 mmHg 59%
    11:00 +13°C° 0 mm 3 mps 752 mmHg 54%
    12:00 +14°C° 0 mm 3 mps 752 mmHg 48%
    13:00 +16°C° 0 mm 3 mps 751 mmHg 47%
    14:00 +16°C° 0 mm 3 mps 751 mmHg 45%
    15:00 +17°C° 0 mm 3 mps 750 mmHg 44%
    16:00 +17°C° 0 mm 3 mps 750 mmHg 49%
    17:00 +16°C° 0 mm 3 mps 749 mmHg 55%
    18:00 +16°C° 0 mm 3 mps 749 mmHg 61%
    19:00 +14°C° 0 mm 3 mps 749 mmHg 62%
    20:00 +13°C° 0 mm 3 mps 749 mmHg 63%
    21:00 +12°C° 0 mm 3 mps 749 mmHg 65%
    22:00 +12°C° 0 mm 4 mps 749 mmHg 69%
    23:00 +12°C° 0 mm 4 mps 749 mmHg 73%
    Show more